Weather History for Nice, France

Change the Weather History Date:

Wednesday, January 15, 2014

  Actual Average Record
Temperature  
Mean Temperature 50 °F -  
Max Temperature 57 °F 54 °F 60 °F (1997)
Min Temperature 42 °F 40 °F 33 °F (2006)
Degree Days  
Heating Degree Days 16    
Moisture  
Dew Point 35 °F    
Average Humidity 59    
Maximum Humidity 81    
Minimum Humidity 25    
Precipitation  
Precipitation 0.00 in 0.10 in - ()
Sea Level Pressure  
Sea Level Pressure 29.86 in    
Wind  
Wind Speed 9 mph ()    
Max Wind Speed 15 mph    
Max Gust Speed -    
Visibility 8.9 miles    
Events      
Averages and records for this station are not official NWS values.
T = Trace of Precipitation, MM = Missing Value Source: Averaged Metar Reports

Daily Weather History Graph

Daily Weather History Graph

Search for Another Location

Airport:

Trip Planner

Search our weather history database for the weather conditions in past years. The results will help you decide how hot, cold, wet, or windy it might be!

Date:

Astronomy

Jan. 15, 2014 Rise Set
Actual Time 8:01 AM CET 5:19 PM CET
Civil Twilight 7:29 AM CET 5:51 PM CET
Nautical Twilight 6:54 AM CET 6:27 PM CET
Astronomical Twilight 6:20 AM CET 7:01 PM CET
Moon 5:04 PM CET (1/15) 7:05 AM CET (1/15)
Length of Visible Light 10h 21m
Length of Day
9h 18m
Full, 100% of the Moon is Illuminated
Jan 15
Full
Jan 16
Full
Jan 24
Last Quarter
Jan 30
New
Feb 6
First Quarter

Hourly Weather History & Observations

Time (CET) Temp. Windchill Dew Point Humidity Pressure Visibility Wind Dir Wind Speed Gust Speed Precip Events Conditions
12:00 AM 44 °F - 36 °F 64% 29.75 in 19 mi NNW 10.4 mph - -  
12:00 AM 44.6 °F 39.2 °F 35.6 °F 71% 29.74 in - NNW 10.4 mph - N/A   Clear
12:30 AM 44.6 °F 39.7 °F 35.6 °F 71% 29.74 in - NNW 9.2 mph - N/A   Clear
1:00 AM 44 °F - 35 °F 59% 29.75 in 19 mi NNW 9.2 mph - -  
1:00 AM 44.6 °F 39.7 °F 35.6 °F 71% 29.74 in - NNW 9.2 mph - N/A   Clear
1:30 AM 42.8 °F 37.5 °F 33.8 °F 70% 29.74 in - NNW 9.2 mph - N/A   Clear
2:00 AM 44 °F - 34 °F 57% 29.75 in 19 mi NNW 10.4 mph - -   Partly Cloudy
2:00 AM 42.8 °F 37.0 °F 33.8 °F 70% 29.74 in 6.2 mi NNW 10.4 mph - N/A   Scattered Clouds
2:30 AM 42.8 °F 37.0 °F 33.8 °F 70% 29.74 in 6.2 mi NNW 10.4 mph - N/A   Partly Cloudy
3:00 AM 43 °F - 33 °F 58% 29.76 in 19 mi NNW 10.4 mph - -   Scattered Clouds
3:00 AM 42.8 °F 38.0 °F 33.8 °F 70% 29.74 in 6.2 mi NNW 8.1 mph - N/A   Partly Cloudy
3:30 AM 42.8 °F 37.0 °F 32.0 °F 66% 29.74 in 6.2 mi NNW 10.4 mph - N/A   Partly Cloudy
4:00 AM 44 °F - 32 °F 52% 29.77 in 19 mi NNW 9.2 mph - -   Scattered Clouds
4:00 AM 42.8 °F 37.0 °F 32.0 °F 66% 29.74 in 6.2 mi NNW 10.4 mph - N/A   Partly Cloudy
4:30 AM 42.8 °F 35.8 °F 32.0 °F 66% 29.77 in 6.2 mi NNW 13.8 mph - N/A   Partly Cloudy
5:00 AM 43 °F - 32 °F 53% 29.78 in 19 mi NNW 11.5 mph - -   Scattered Clouds
5:00 AM 42.8 °F 36.6 °F 32.0 °F 66% 29.77 in 6.2 mi NNW 11.5 mph - N/A   Partly Cloudy
5:30 AM 42.8 °F 36.6 °F 32.0 °F 66% 29.77 in 6.2 mi NNW 11.5 mph - N/A   Partly Cloudy
6:00 AM 44 °F - 30 °F 46% 29.80 in 19 mi North 10.4 mph - -   Scattered Clouds
6:00 AM 44.6 °F 38.8 °F 30.2 °F 57% 29.77 in 6.2 mi North 11.5 mph - N/A   Partly Cloudy
6:30 AM 42.8 °F 37.0 °F 30.2 °F 61% 29.80 in - NNW 10.4 mph - N/A   Clear
7:00 AM 43 °F - 30 °F 49% 29.82 in 19 mi NNW 12.7 mph - -   Scattered Clouds
7:00 AM 42.8 °F 36.2 °F 30.2 °F 61% 29.80 in - NNW 12.7 mph - N/A   Clear
7:30 AM 42.8 °F 35.8 °F 30.2 °F 61% 29.83 in 6.2 mi NNW 13.8 mph - N/A   Partly Cloudy
8:00 AM 42 °F - 30 °F 52% 29.85 in 31 mi NNW 15.0 mph - -   Scattered Clouds
8:00 AM 42.8 °F 35.4 °F 30.2 °F 61% 29.83 in 6.2 mi NNW 15.0 mph - N/A   Partly Cloudy
8:30 AM 42.8 °F 37.0 °F 30.2 °F 61% 29.86 in 6.2 mi NNW 10.4 mph - N/A   Partly Cloudy
9:00 AM 44 °F - 30 °F 46% 29.87 in 31 mi NNW 11.5 mph - -   Scattered Clouds
9:00 AM 42.8 °F 36.6 °F 30.2 °F 61% 29.86 in 6.2 mi NNW 11.5 mph - N/A   Partly Cloudy
9:23 AM 44.6 °F 38.8 °F 30.2 °F 57% 29.86 in 6.2 mi NNW 11.5 mph - N/A   Partly Cloudy
10:00 AM 47 °F - 31 °F 41% 29.89 in 31 mi NNW 10.4 mph - -   Scattered Clouds
10:00 AM 46.4 °F 41.5 °F 30.2 °F 53% 29.86 in 6.2 mi NNW 10.4 mph - N/A   Partly Cloudy
10:30 AM 48.2 °F - 30.2 °F 50% 29.89 in 6.2 mi NNW 11.5 mph - N/A   Partly Cloudy
11:00 AM 50 °F - 30 °F 34% 29.91 in 31 mi NNW 11.5 mph - -   Scattered Clouds
11:00 AM 50.0 °F - 32.0 °F 50% 29.89 in 6.2 mi NNW 11.5 mph - N/A   Partly Cloudy
11:30 AM 51.8 °F - 30.2 °F 44% 29.89 in 6.2 mi NNW 9.2 mph - N/A   Partly Cloudy
12:00 PM 54 °F - 30 °F 27% 29.90 in 31 mi NNW 5.8 mph - -   Scattered Clouds
12:00 PM 53.6 °F - 30.2 °F 41% 29.89 in 6.2 mi NNW 5.8 mph - N/A   Scattered Clouds
12:30 PM 55.4 °F - 28.4 °F 36% 29.89 in 6.2 mi NNW 6.9 mph - N/A   Scattered Clouds
1:00 PM 57 °F - 31 °F 25% 29.89 in 31 mi ESE 2.3 mph - -   Scattered Clouds
1:00 PM 57.2 °F - 30.2 °F 36% 29.89 in 6.2 mi ESE 2.3 mph - N/A   Scattered Clouds
1:30 PM 57.2 °F - 35.6 °F 44% 29.86 in 6.2 mi ESE 3.5 mph - N/A   Scattered Clouds
2:00 PM 57 °F - 38 °F 38% 29.88 in 31 mi SSE 3.5 mph - -   Scattered Clouds
2:00 PM 57.2 °F - 39.2 °F 51% 29.86 in 6.2 mi Variable 3.5 mph - N/A   Scattered Clouds
2:30 PM 57.2 °F - 41.0 °F 55% 29.89 in 6.2 mi South 3.5 mph - N/A   Scattered Clouds
3:00 PM 57 °F - 42 °F 47% 29.89 in 31 mi South 4.6 mph - -   Scattered Clouds
3:00 PM 57.2 °F - 42.8 °F 59% 29.89 in 6.2 mi South 4.6 mph - N/A   Scattered Clouds
3:30 PM 55.4 °F - 42.8 °F 63% 29.89 in 6.2 mi South 5.8 mph - N/A   Scattered Clouds
4:00 PM 56 °F - 43 °F 51% 29.91 in 31 mi South 4.6 mph - -   Scattered Clouds
4:00 PM 55.4 °F - 42.8 °F 63% 29.89 in 6.2 mi South 4.6 mph - N/A   Partly Cloudy
4:30 PM 55.4 °F - 44.6 °F 67% 29.89 in 6.2 mi South 5.8 mph - N/A   Partly Cloudy
5:00 PM 55 °F - 44 °F 56% 29.91 in 31 mi SSW 3.5 mph - -   Scattered Clouds
5:00 PM 55.4 °F - 44.6 °F 67% 29.89 in 6.2 mi South 3.5 mph - N/A   Partly Cloudy
5:30 PM 53.6 °F - 42.8 °F 67% 29.89 in - WSW 2.3 mph - N/A   Clear
6:00 PM 51 °F - 44 °F 70% 29.93 in 31 mi West 3.5 mph - -   Clear
6:00 PM 51.8 °F - 44.6 °F 76% 29.92 in - West 3.5 mph - N/A   Clear
6:30 PM 50.0 °F - 42.8 °F 76% 29.92 in - NW 3.5 mph - N/A   Clear
7:00 PM 47 °F - 41 °F 73% 29.94 in 12 mi NW 8.1 mph - -   Clear
7:00 PM 48.2 °F - 41.0 °F 76% 29.92 in - NW 8.1 mph - N/A   Clear
7:30 PM 46.4 °F 42.9 °F 41.0 °F 81% 29.92 in - NNW 6.9 mph - N/A   Clear
8:00 PM 47 °F - 39 °F 65% 29.95 in 12 mi NNW 9.2 mph - -   Scattered Clouds
8:00 PM 46.4 °F 41.9 °F 39.2 °F 76% 29.92 in - NNW 9.2 mph - N/A   Clear
8:30 PM 46.4 °F 41.1 °F 39.2 °F 76% 29.95 in - NNW 11.5 mph - N/A   Clear
9:00 PM 47 °F - 38 °F 61% 29.96 in 12 mi NNW 10.4 mph - -   Scattered Clouds
9:00 PM 46.4 °F 41.5 °F 37.4 °F 71% 29.95 in 6.2 mi NNW 10.4 mph - N/A   Mostly Cloudy
9:30 PM 46.4 °F 41.5 °F 37.4 °F 71% 29.95 in 6.2 mi NNW 10.4 mph - N/A   Mostly Cloudy
10:00 PM 46 °F - 37 °F 62% 29.97 in 12 mi NNW 9.2 mph - -   Overcast
10:00 PM 46.4 °F 41.9 °F 37.4 °F 71% 29.95 in 6.2 mi NNW 9.2 mph - N/A   Overcast
10:30 PM 46.4 °F 41.9 °F 35.6 °F 66% 29.95 in 6.2 mi NNW 9.2 mph - N/A   Mostly Cloudy
11:00 PM 47 °F - 36 °F 56% 29.97 in 12 mi NNW 11.5 mph - -   Scattered Clouds
11:00 PM 46.4 °F 41.1 °F 35.6 °F 66% 29.95 in 6.2 mi NNW 11.5 mph - N/A   Mostly Cloudy
11:30 PM 46.4 °F 41.9 °F 35.6 °F 66% 29.95 in 6.2 mi NNW 9.2 mph - N/A   Mostly Cloudy